TimeCST,TemperatureF,Dew PointF,Humidity,Sea Level PressureIn,VisibilityMPH,Wind Direction,Wind SpeedMPH,Gust SpeedMPH,PrecipitationIn,Events,Conditions,WindDirDegrees,DateUTC
12:10 AM,10.4,6.8,85,30.03,10.0,Calm,Calm,-,N/A,,Clear,0,2013-02-27 06:10:00
12:30 AM,8.6,3.2,79,30.02,10.0,NNW,4.6,-,N/A,,Clear,330,2013-02-27 06:30:00
12:50 AM,8.6,3.2,79,30.02,10.0,Calm,Calm,-,N/A,,Clear,0,2013-02-27 06:50:00
1:10 AM,8.6,3.2,79,30.02,10.0,Calm,Calm,-,N/A,,Clear,0,2013-02-27 07:10:00
1:30 AM,6.8,3.2,85,30.01,10.0,Calm,Calm,-,N/A,,Clear,0,2013-02-27 07:30:00
1:50 AM,6.8,1.4,79,30.01,10.0,Calm,Calm,-,N/A,,Clear,0,2013-02-27 07:50:00
2:10 AM,6.8,1.4,79,30.01,10.0,Calm,Calm,-,N/A,,Clear,0,2013-02-27 08:10:00
2:50 AM,5.0,1.4,85,30.00,10.0,Calm,Calm,-,N/A,,Clear,0,2013-02-27 08:50:00
3:10 AM,3.2,-0.4,85,30.00,10.0,Calm,Calm,-,N/A,,Clear,0,2013-02-27 09:10:00
3:30 AM,3.2,-0.4,85,30.00,10.0,Calm,Calm,-,N/A,,Clear,0,2013-02-27 09:30:00
3:50 AM,3.2,-0.4,85,30.00,10.0,Calm,Calm,-,N/A,,Clear,0,2013-02-27 09:50:00
4:10 AM,3.2,-0.4,85,30.01,10.0,Calm,Calm,-,N/A,,Clear,0,2013-02-27 10:10:00
4:30 AM,3.2,-0.4,85,30.01,10.0,Calm,Calm,-,N/A,,Clear,0,2013-02-27 10:30:00
4:50 AM,1.4,-0.4,92,30.01,10.0,Calm,Calm,-,N/A,,Clear,0,2013-02-27 10:50:00
5:10 AM,1.4,-2.2,85,30.01,10.0,Calm,Calm,-,N/A,,Clear,0,2013-02-27 11:10:00
5:30 AM,1.4,-2.2,85,30.02,10.0,Calm,Calm,-,N/A,,Clear,0,2013-02-27 11:30:00
5:50 AM,1.4,-2.2,85,30.02,10.0,Calm,Calm,-,N/A,,Clear,0,2013-02-27 11:50:00
6:10 AM,1.4,-2.2,85,30.02,10.0,Calm,Calm,-,N/A,,Clear,0,2013-02-27 12:10:00
6:30 AM,-0.4,-4.0,85,30.02,10.0,Calm,Calm,-,N/A,,Clear,0,2013-02-27 12:30:00
6:50 AM,-0.4,-4.0,85,30.02,10.0,Calm,Calm,-,N/A,,Clear,0,2013-02-27 12:50:00
7:10 AM,-0.4,-4.0,85,30.02,10.0,Calm,Calm,-,N/A,,Clear,0,2013-02-27 13:10:00
7:30 AM,1.4,-2.2,85,30.03,10.0,Calm,Calm,-,N/A,,Clear,0,2013-02-27 13:30:00
7:50 AM,3.2,-0.4,85,30.02,10.0,Calm,Calm,-,N/A,,Clear,0,2013-02-27 13:50:00
8:10 AM,6.8,1.4,79,30.03,10.0,Calm,Calm,-,N/A,,Clear,0,2013-02-27 14:10:00
8:30 AM,8.6,6.8,92,30.03,10.0,Calm,Calm,-,N/A,,Clear,0,2013-02-27 14:30:00
8:50 AM,15.8,10.4,79,30.03,10.0,Calm,Calm,-,N/A,,Clear,0,2013-02-27 14:50:00
9:10 AM,19.4,15.8,86,30.04,10.0,Calm,Calm,-,N/A,,Scattered Clouds,0,2013-02-27 15:10:00
9:30 AM,21.2,17.6,86,30.03,10.0,Calm,Calm,-,N/A,,Overcast,0,2013-02-27 15:30:00
9:50 AM,24.8,19.4,80,30.03,10.0,NNW,3.5,-,N/A,,Scattered Clouds,330,2013-02-27 15:50:00
10:10 AM,26.6,19.4,74,30.02,10.0,NNW,4.6,-,N/A,,Clear,330,2013-02-27 16:10:00
10:30 AM,30.2,21.2,69,30.02,10.0,North,5.8,-,N/A,,Clear,350,2013-02-27 16:30:00
10:50 AM,33.8,23.0,65,30.01,10.0,North,5.8,-,N/A,,Clear,360,2013-02-27 16:50:00
11:10 AM,33.8,23.0,65,30.02,10.0,North,6.9,-,N/A,,Clear,10,2013-02-27 17:10:00
11:30 AM,33.8,21.2,60,30.02,10.0,North,8.1,-,N/A,,Scattered Clouds,360,2013-02-27 17:30:00
11:50 AM,35.6,21.2,56,30.03,10.0,NNE,6.9,-,N/A,,Mostly Cloudy,30,2013-02-27 17:50:00
12:10 PM,33.8,21.2,60,30.04,10.0,NNE,6.9,-,N/A,,Overcast,30,2013-02-27 18:10:00
12:30 PM,32.0,19.4,60,30.04,10.0,North,9.2,-,N/A,,Overcast,360,2013-02-27 18:30:00
12:50 PM,30.2,19.4,64,30.04,10.0,North,8.1,-,N/A,,Overcast,360,2013-02-27 18:50:00
1:10 PM,30.2,21.2,69,30.04,10.0,NE,9.2,-,N/A,,Overcast,40,2013-02-27 19:10:00
1:30 PM,30.2,21.2,69,30.04,10.0,NNE,8.1,-,N/A,,Overcast,20,2013-02-27 19:30:00
1:50 PM,32.0,21.2,64,30.03,10.0,NNE,10.4,-,N/A,,Overcast,30,2013-02-27 19:50:00
2:10 PM,33.8,21.2,60,30.03,10.0,NNE,4.6,-,N/A,,Overcast,20,2013-02-27 20:10:00
2:30 PM,32.0,21.2,64,30.03,10.0,North,8.1,-,N/A,,Overcast,10,2013-02-27 20:30:00
2:50 PM,32.0,21.2,64,30.03,10.0,NNE,4.6,-,N/A,,Overcast,20,2013-02-27 20:50:00
3:10 PM,32.0,21.2,64,30.04,10.0,North,4.6,-,N/A,,Overcast,10,2013-02-27 21:10:00
3:30 PM,30.2,21.2,69,30.05,10.0,North,4.6,-,N/A,,Overcast,10,2013-02-27 21:30:00
3:50 PM,30.2,21.2,69,30.06,10.0,North,5.8,-,N/A,,Overcast,10,2013-02-27 21:50:00
4:10 PM,30.2,21.2,69,30.06,10.0,NNE,5.8,-,N/A,,Overcast,20,2013-02-27 22:10:00
4:30 PM,30.2,21.2,69,30.06,10.0,North,8.1,-,N/A,,Overcast,360,2013-02-27 22:30:00
4:50 PM,30.2,21.2,69,30.07,10.0,North,6.9,-,N/A,,Overcast,360,2013-02-27 22:50:00
5:10 PM,28.4,21.2,74,30.07,10.0,NNE,6.9,-,N/A,,Overcast,20,2013-02-27 23:10:00
5:30 PM,28.4,21.2,74,30.08,10.0,North,6.9,-,N/A,,Overcast,350,2013-02-27 23:30:00
5:50 PM,28.4,21.2,74,30.09,10.0,North,4.6,-,N/A,,Overcast,10,2013-02-27 23:50:00
6:10 PM,28.4,21.2,74,30.10,10.0,North,9.2,-,N/A,,Overcast,10,2013-02-28 00:10:00
6:30 PM,28.4,21.2,74,30.10,10.0,North,10.4,-,N/A,,Overcast,350,2013-02-28 00:30:00
6:50 PM,26.6,21.2,80,30.11,10.0,NNE,6.9,-,N/A,,Overcast,30,2013-02-28 00:50:00
7:10 PM,26.6,19.4,74,30.11,10.0,NNE,4.6,9.2,N/A,,Overcast,20,2013-02-28 01:10:00
7:30 PM,26.6,19.4,74,30.11,10.0,North,6.9,-,N/A,,Overcast,10,2013-02-28 01:30:00
7:50 PM,26.6,19.4,74,30.12,10.0,North,9.2,17.3,N/A,,Overcast,10,2013-02-28 01:50:00
8:10 PM,26.6,19.4,74,30.12,10.0,North,4.6,-,N/A,,Overcast,360,2013-02-28 02:10:00
8:30 PM,26.6,19.4,74,30.13,10.0,NNE,8.1,-,N/A,,Overcast,20,2013-02-28 02:30:00
8:50 PM,24.8,19.4,80,30.13,10.0,NNE,8.1,-,N/A,,Overcast,20,2013-02-28 02:50:00
9:10 PM,24.8,19.4,80,30.13,10.0,NNE,6.9,-,N/A,,Overcast,20,2013-02-28 03:10:00
9:30 PM,24.8,19.4,80,30.13,10.0,NNE,6.9,-,N/A,,Overcast,20,2013-02-28 03:30:00
9:50 PM,24.8,19.4,80,30.14,10.0,North,8.1,-,N/A,,Overcast,10,2013-02-28 03:50:00
10:10 PM,24.8,19.4,80,30.14,10.0,North,6.9,-,N/A,,Overcast,360,2013-02-28 04:10:00
10:29 PM,24.8,19.4,80,30.14,10.0,NNE,5.8,-,N/A,,Overcast,30,2013-02-28 04:29:00
10:50 PM,24.8,19.4,80,30.14,10.0,NNE,6.9,16.1,N/A,,Overcast,30,2013-02-28 04:50:00
11:10 PM,24.8,19.4,80,30.15,10.0,NNE,5.8,16.1,N/A,,Overcast,30,2013-02-28 05:10:00
11:30 PM,24.8,17.6,74,30.15,10.0,NNE,5.8,-,N/A,,Overcast,30,2013-02-28 05:30:00